Location: Felzins
(44.6047°N, 2.1356°E)
Time: 20:19:06
(UTC+00:00)

Daily predictions for brighter satellites

Satellite Brightness Start Highest point End
(mag) Time Altitude Azimuth Time Altitude Azimuth Time Altitude Azimuth
Meteor 1-21 4.3 17:01:56 10° S 17:07:25 63° E 17:13:01 10° NNE
SL-14 R/B 4.3 17:06:09 10° SSW 17:09:46 46° WNW 17:13:26 10° N
CORIOLIS 4.2 17:04:32 10° SSE 17:09:57 79° ENE 17:15:24 10° NNW
Cosmos 1763 Rocket 3.5 17:05:21 10° S 17:10:31 70° ESE 17:15:39 10° NNE
Spot 4 Rocket 4.0 17:06:29 10° SSE 17:11:32 63° ENE 17:16:36 10° N
Cosmos 1758 4.1 17:07:55 10° NNW 17:11:42 55° W 17:15:28 10° S
YAOGAN 1 4.1 17:10:07 10° E 17:12:33 15° ENE 17:15:01 10° NNE
Cosmos 1733 Rocket 3.5 17:11:19 10° N 17:15:27 38° ENE 17:19:34 10° SE
Cosmos 540 Rocket 3.5 17:11:12 10° S 17:16:15 61° ESE 17:21:19 10° NNE
Cosmos 2322 4.2 17:13:18 10° SW 17:18:58 63° WNW 17:24:41 10° NNE
Cosmos 468 Rocket 4.2 17:15:10 10° S 17:20:11 51° ESE 17:25:11 10° NNE
USA 215 4.1 17:17:14 10° NE 17:23:16 41° NNW 17:29:18 10° W
Cosmos 2228 Rocket 3.4 17:19:47 10° SSE 17:24:06 46° E 17:28:28 10° NNE
Cosmos 2279 Rocket 4.0 17:21:31 10° N 17:27:42 70° E 17:33:51 10° SSE
Cosmos 841 Rocket 4.3 17:25:13 10° SSE 17:29:45 30° E 17:34:18 10° NE
Cosmos 1898 Rocket 3.9 17:25:13 10° N 17:30:11 40° ENE 17:35:10 10° SE
PSLV R/B 3.4 17:28:16 10° SSE 17:32:19 89° ESE 17:36:26 10° NNW
Aureole 1 Rocket 4.4 17:26:49 10° NNW 17:34:24 58° ENE 17:41:07 10° SE
Okean 1-7 3.7 17:34:00 10° SSE 17:37:50 33° E 17:41:41 10° NNE
SL-16 R/B 3.5 17:34:02 10° SE 17:37:59 20° E 17:40:55 14° ENE
Cosmos 1980 3.7 17:32:31 10° SSW 17:38:07 71° ESE 17:43:46 10° NNE
SMAP 4.0 17:36:52 10° S 17:41:24 53° W 17:45:59 10° NNW
Cosmos 1953 2.0 17:40:34 10° N 17:44:18 78° E 17:48:00 10° SSE
Lacrosse 5 4.4 17:43:02 10° WNW 17:47:05 24° WSW 17:51:08 10° S
NOSS 0 Rocket 4.1 17:41:55 10° SSW 17:48:03 75° WNW 17:54:14 10° NNE
SKYMED 2 3.6 17:46:23 10° NNE 17:50:41 59° E 17:54:58 10° S
Cosmos 1818 4.3 17:47:37 10° NNW 17:52:34 33° NE 17:56:19 16° E
ATLAS 2AS CENTAUR R/B 3.2 17:47:47 10° NNW 17:54:04 37° NE 17:59:05 15° E
ACS3 Solar Sail 2.0 17:49:00 10° SE 17:55:10 54° ENE 18:01:23 10° N
COSMOS 2428 3.9 17:50:10 10° SW 17:55:30 41° WNW 18:00:52 10° NNE
Cosmos 2369 Rocket 3.4 17:51:36 10° N 17:55:40 20° NE 17:56:55 19° ENE
IGS 5A 4.0 17:52:11 10° S 17:56:08 58° W 18:00:07 10° NNW
Cosmos 372 Rocket 3.8 17:55:14 10° NNW 18:00:19 68° ENE 18:05:22 10° SSE
Cosmos 1174 4.3 17:57:07 10° NW 18:00:51 66° WSW 18:05:25 10° SSE
DNEPR-1 R/B 3.6 18:00:11 10° NW 18:04:58 87° SW 18:09:11 10° SSE
BREEZE-M DEB (TANK) 4.0 17:56:08 10° W 18:05:19 53° NNW 18:07:22 24° NE
Cosmos 1908 Rocket 3.8 18:04:23 10° N 18:08:32 43° ENE 18:12:38 10° SSE
Meteor 1-31 Rocket 2.4 18:08:02 10° SSE 18:11:34 67° ENE 18:15:07 10° N
Okean 3 4.5 18:08:09 10° SSW 18:12:04 46° WNW 18:16:04 10° N
Cosmos 1707 Rocket 4.4 18:08:31 10° SSW 18:12:51 53° W 18:17:13 10° N
EO 1 Delta rocket 3.7 18:09:54 10° N 18:14:36 82° E 18:19:18 10° S
Okean 2 4.1 18:12:02 10° SSW 18:15:52 51° WNW 18:19:44 10° N
Cosmos 2297 4.4 18:13:58 10° N 18:19:04 32° NE 18:20:17 29° ENE
Cosmos 1937 Rocket 3.3 18:15:10 10° NNW 18:20:20 76° ENE 18:25:30 10° SSE
CZ-2C R/B 4.0 18:22:18 22° N 18:22:18 22° N 18:23:41 10° N
Cosmos 2026 Rocket 4.2 18:15:23 10° SSE 18:21:27 49° E 18:27:32 10° NNE
Cosmos 858 Rocket 4.4 18:19:43 10° NNW 18:24:54 63° ENE 18:30:04 10° SSE
Cosmos 1825 4.3 18:23:07 10° SSE 18:23:11 10° SSE 18:23:11 10° SSE
BREEZE-M DEB (TANK) 3.8 18:10:26 10° WSW 18:26:33 81° NNW 18:28:56 33° ENE
Cosmos 1428 Rocket 4.4 18:22:04 10° S 18:28:15 75° E 18:34:24 10° NNE
Cosmos 1943 Rocket 3.2 18:23:41 10° NW 18:29:07 49° WSW 18:34:28 10° S
YAOGAN 3 4.4 18:25:20 10° SSE 18:29:34 71° ENE 18:33:49 10° N
RESURS DK-1 3.6 18:25:59 10° NW 18:29:48 42° WSW 18:33:35 10° S
Cosmos 2237 Rocket 3.0 18:26:52 10° SW 18:32:22 49° WNW 18:37:54 10° NNE
BlueWalker 3 2.7 18:30:53 10° NW 18:33:53 35° N 18:33:53 35° N
CZ-4B R/B 4.1 18:33:51 10° S 18:37:25 58° WSW 18:40:56 10° NNW
COSMO-SKYMED 1 3.7 18:34:37 10° N 18:38:45 43° WNW 18:42:51 10° SW
ISS -2.7 18:35:52 10° W 18:39:00 36° NNW 18:39:01 36° NNW
NOAA 6 4.3 18:34:12 10° S 18:39:16 69° WSW 18:44:24 10° NNW
Cosmos 2344 4.4 18:36:05 10° WSW 18:43:02 40° NW 18:48:48 15° NNE
Cosmos 2278 Rocket 4.2 18:38:31 10° NW 18:43:18 29° WSW 18:48:04 10° SSW
YAOGAN 1 3.1 18:43:48 10° S 18:48:00 58° W 18:52:14 10° NNW
CZ-4C R/B 2.5 18:46:22 10° WSW 18:50:39 49° NW 18:53:04 28° NNE
YAOGAN 11 4.0 18:51:30 43° N 18:52:51 80° WNW 18:57:08 10° SSW
ATLAS 5 CENTAUR R/B 1.9 18:52:12 10° SW 18:54:38 44° W 18:54:38 44° W
Meteor 1-24 Rocket 3.8 18:50:38 10° S 18:56:25 62° E 18:58:08 44° NE
SPOT 1/Viking Rocket 3.6 18:54:04 10° S 18:59:14 78° WSW 19:04:25 10° NNW
Cosmos 1703 Rocket 4.1 18:55:08 10° SSW 18:59:31 59° W 19:02:12 23° N
Resurs 1-3 3.8 18:59:30 10° S 19:03:46 66° W 19:08:05 10° NNW
USA 215 4.3 19:03:32 26° NNE 19:05:16 30° N 19:10:46 10° WNW
Meteor 2-5 Rocket 3.6 19:01:20 10° S 19:07:01 71° E 19:07:37 66° NE
Cosmos 1656 Rocket 3.6 19:08:14 10° NNW 19:13:45 82° WSW 19:14:50 59° S
Cosmos 1814 Rocket 4.3 19:15:59 10° SSW 19:20:11 58° SSW 19:20:11 58° SSW
SL-16 R/B 2.5 19:15:54 10° SW 19:21:31 65° WNW 19:22:50 50° N
Cosmos 1553 Rocket 4.3 19:19:19 10° N 19:23:51 51° N 19:23:51 51° N
ADEOS 4.4 19:29:31 41° NNW 19:29:31 41° NNW 19:32:51 10° NNW
Cosmos 1818 4.4 19:31:04 10° NW 19:36:17 47° WSW 19:37:01 44° SW
ACS3 Solar Sail 3.8 19:33:39 10° SSW 19:38:59 28° W 19:44:23 10° NNW
Cosmos 2369 Rocket 2.8 19:34:43 10° NNW 19:38:45 48° NW 19:38:45 48° NW
ATLAS 2AS CENTAUR R/B 3.1 19:38:40 10° NW 19:45:15 57° WSW 19:46:35 49° SSW
Cosmos 839 Rocket 4.3 19:46:23 10° SW 19:52:33 62° WNW 19:52:33 62° WNW
